Pellston, MI

4:30 AM EDT on October 19, 2017 (GMT -0400)
Pellston Regional Airport Of Emmet County

Weather History for KPLN - May, 2013

Change the Weather History Date:

Wednesday, May 8, 2013

  Actual Average Record
Temperature  
Mean Temperature 60 °F -  
Max Temperature 81 °F 62 °F 84 °F (1979)
Min Temperature 39 °F 37 °F 15 °F (1956)
Degree Days  
Heating Degree Days 6    
Growing Degree Days 10 (Base 50)    
Moisture  
Dew Point 36 °F    
Average Humidity 46    
Maximum Humidity 86    
Minimum Humidity 18    
Precipitation  
Precipitation 0.00 in - - ()
Sea Level Pressure  
Sea Level Pressure 30.02 in    
Wind  
Wind Speed 2 mph (NNW)    
Max Wind Speed 9 mph    
Max Gust Speed 17 mph    
Visibility 10 miles    
Events      
Averages and records for this station are not official NWS values.
T = Trace of Precipitation, MM = Missing Value Source: NWS Daily Summary

Daily Weather History Graph

Daily Weather History Graph

Search for Another Location

Airport or City:

Trip Planner

Search our weather history database for the weather conditions in past years. The results will help you decide how hot, cold, wet, or windy it might be!

Date:

Astronomy

May. 08, 2013 Rise Set
Actual Time 6:16 AM EDT 8:55 PM EDT
Civil Twilight 5:43 AM EDT 9:29 PM EDT
Nautical Twilight 5:00 AM EDT 10:11 PM EDT
Astronomical Twilight 4:11 AM EDT 11:01 PM EDT
Moon 5:28 AM EDT (5/8) 7:50 PM EDT (5/8)
Length of Visible Light 15h 46m
Length of Day
14h 38m
Waning Crescent, 2% of the Moon is Illuminated
May 8
Waning Crescent
May 9
New
May 18
First Quarter
May 25
Full
May 31
Last Quarter

Hourly Weather History & Observations

Time (EDT) Temp. Dew Point Humidity Pressure Visibility Wind Dir Wind Speed Gust Speed Precip Events Conditions
12:54 AM 45.0 °F 33.1 °F 63% 30.05 in 10.0 mi Calm Calm - N/A   Clear
1:54 AM 44.1 °F 35.1 °F 71% 30.04 in 10.0 mi Calm Calm - N/A   Clear
2:54 AM 42.1 °F 34.0 °F 73% 30.04 in 10.0 mi Calm Calm - N/A   Clear
3:54 AM 42.1 °F 35.1 °F 76% 30.04 in 10.0 mi Calm Calm - N/A   Clear
4:54 AM 39.9 °F 35.1 °F 83% 30.03 in 10.0 mi Calm Calm - N/A   Clear
5:54 AM 39.0 °F 35.1 °F 86% 30.03 in 10.0 mi Calm Calm - N/A   Clear
6:54 AM 41.0 °F 37.0 °F 86% 30.04 in 10.0 mi Calm Calm - N/A   Clear
7:54 AM 50.0 °F 39.9 °F 68% 30.05 in 10.0 mi Calm Calm - N/A   Clear
8:54 AM 60.1 °F 37.9 °F 44% 30.05 in 10.0 mi Calm Calm - N/A   Clear
9:54 AM 68.0 °F 39.0 °F 35% 30.05 in 10.0 mi East 3.5 mph - N/A   Clear
10:54 AM 73.0 °F 39.0 °F 29% 30.04 in 10.0 mi Calm Calm - 0.00 in   Clear
11:54 AM 78.1 °F 36.0 °F 22% 30.04 in 10.0 mi NNW 4.6 mph - N/A   Clear
12:54 PM 77.0 °F 35.1 °F 22% 30.03 in 10.0 mi Calm Calm - N/A   Clear
1:54 PM 80.1 °F 33.1 °F 18% 30.02 in 10.0 mi NW 9.2 mph - N/A   Clear
2:54 PM 80.1 °F 33.1 °F 18% 30.01 in 10.0 mi NNW 8.1 mph - N/A   Clear
3:54 PM 79.0 °F 32.0 °F 18% 30.01 in 10.0 mi North 9.2 mph 17.3 mph N/A   Clear
4:54 PM 79.0 °F 35.1 °F 20% 29.99 in 10.0 mi NW 8.1 mph - N/A   Clear
5:54 PM 78.1 °F 34.0 °F 20% 29.99 in 10.0 mi NW 8.1 mph - N/A   Clear
6:54 PM 77.0 °F 33.1 °F 20% 29.98 in 10.0 mi NW 4.6 mph - N/A   Clear
7:54 PM 75.0 °F 35.1 °F 23% 29.98 in 10.0 mi NW 9.2 mph - N/A   Clear
8:54 PM 64.9 °F 35.1 °F 33% 29.99 in 10.0 mi NW 5.8 mph - N/A   Clear
9:54 PM 57.9 °F 37.9 °F 47% 29.99 in 10.0 mi Calm Calm - N/A   Clear
10:54 PM 52.0 °F 37.9 °F 59% 30.00 in 10.0 mi Calm Calm - N/A   Clear
11:54 PM 46.9 °F 37.0 °F 68% 30.00 in 10.0 mi Calm Calm - N/A   Clear